Location: Aytr�
(46.1357°N, 1.1145°W)
Time: 17:52:06
(UTC+00:00)

BREEZE-M DEB (TANK) - Pass Details

Date: 03 March 2021
Orbit: 308 x 15403 km, 49.5° (Epoch: 14 April)

Event Time Altitude Azimuth Distance (km) Brightness Sun altitude
Rises 19:46:39 0° 285° (WNW) 2,090 6.9 -20.3°
Reaches altitude 10° 19:48:03 10° 291° (WNW) 1,401 5.6 -20.5°
Maximum altitude 19:50:38 54° 11° (NNE) 686 2.7 -20.9°
Enters shadow 19:51:26 44° 55° (NE) 875 3.0 -21.1°
